2021-022G

Last updated on Thu Apr 22 2021 00:02:03 GMT+0000 (Coordinated Universal Time)

1 47938U 21022G 21111.50334241 .00000523 00000-0 40310-4 0 9998 2 47938 97.5599 14.7890 0021977 142.3588 303.9195 15.05624230 4533

Satellite not in orbit

2021-022G